Aéroport int. Stanfield de Halifax, Nouvelle Écosse

Conditions des dernières 24 heures

Date / Heure
(HAA)
Conditions Temp
(°C)
Humidité
(%)
Point de rosée
(°C)
Vent
(km/h)
Pression
(kPa)
Visibilité
(km)
27 avril 2015
21:00 Pluie faible 2 97 1 ENE 20 99,9 8
20:00 Pluie faible 2 97 1 ENE 20 99,8 5
19:00 Brume 2 97 1 E 17 rafale 31 99,7 4
18:00 Pluie faible 2 95 1 ESE 19 99,6 5
17:00 Brume 2 93 1 SE 21 99,5 8
16:00 Pluie faible 2 94 1 E 14 99,5 5
15:00 Neige faible 1 97 0 ESE 7 99,4 2
14:00 Neige faible 1 96 0 SE 9 99,4 1
13:00 Neige faible 0   96 0 SSO 7 99,3 2
12:00 Neige 0   98 0 OSO 10 99,3 0.8
11:00 Neige 0   98 0 O 10 99,3 0.8
10:00 Neige faible 1 97 0 ONO 10 99,3 2
9:00 Neige faible 1 96 0 ONO 18 99,4 2
8:00 Neige faible 1 94 1 ONO 20 99,5 8
7:00 Bruine faible 1 94 0 ONO 18 99,5 16
6:00 Généralement nuageux 1 92 0 NO 19 99,6 24
5:00 Généralement nuageux 1 93 0 ONO 19 99,6 24
4:00 Généralement nuageux 1 93 0 ONO 17 99,7 24
3:00 Généralement nuageux 1 91 -1 ONO 14 99,8 24
2:00 Généralement nuageux 1 90 0 NO 14 99,8 24
1:00 Généralement nuageux 1 88 -1 NO 14 99,9 24
0:00 Généralement nuageux 2 90 0 NNO 14 99,9 24
26 avril 2015
23:00 Nuageux 2 88 1 NNO 18 100,0 24
22:00 Généralement nuageux 3 85 1 N 13 100,0 24
21:00 Généralement nuageux 4   81 1 NNO 12 100,1 24
N.D. non disponible
↑ température la plus haute
↓ température la plus basse

Si vous désirez plus de données historiques sur les conditions météo, s.v.p. visitez Données climatologiques en ligne.

Ce que nous faisons

Date de modification :